TimePST,TemperatureF,Dew PointF,Humidity,Sea Level PressureIn,VisibilityMPH,Wind Direction,Wind SpeedMPH,Gust SpeedMPH,PrecipitationIn,Events,Conditions,WindDirDegrees,DateUTC
12:53 AM,-14.1,-18.9,79,30.19,10.0,South,11.5,-,N/A,,Clear,170,2013-01-12 08:53:00
1:53 AM,-15.0,-18.9,82,30.21,10.0,South,13.8,-,N/A,,Clear,180,2013-01-12 09:53:00
2:53 AM,-16.1,-20.0,82,30.20,10.0,South,13.8,-,N/A,,Partly Cloudy,170,2013-01-12 10:53:00
3:53 AM,-15.0,-18.9,82,30.20,10.0,South,13.8,-,N/A,,Overcast,180,2013-01-12 11:53:00
4:53 AM,-16.1,-20.9,79,30.26,10.0,South,12.7,-,N/A,,Mostly Cloudy,190,2013-01-12 12:53:00
5:53 AM,-11.9,-17.0,78,30.28,10.0,South,11.5,-,N/A,,Overcast,180,2013-01-12 13:53:00
6:53 AM,-9.9,-15.0,78,30.32,10.0,South,11.5,-,N/A,,Overcast,170,2013-01-12 14:53:00
7:53 AM,-6.0,-11.0,79,30.32,10.0,South,11.5,-,N/A,,Overcast,170,2013-01-12 15:53:00
8:53 AM,-2.9,-8.0,79,30.34,10.0,South,9.2,-,0.00,,Overcast,190,2013-01-12 16:53:00
9:53 AM,1.4,-4.0,78,29.97,10.0,South,9.2,-,N/A,,Overcast,170,2013-01-12 17:53:00
10:53 AM,7.0,1.0,77,30.28,10.0,SSW,3.5,-,N/A,,Overcast,200,2013-01-12 18:53:00
11:53 AM,14.0,1.9,59,30.24,10.0,North,4.6,-,N/A,,Overcast,360,2013-01-12 19:53:00
12:03 PM,14.0,1.4,57,29.94,10.0,NNW,3.5,-,N/A,,Overcast,330,2013-01-12 20:03:00
12:36 PM,15.8,1.4,53,29.93,10.0,NE,5.8,-,N/A,,Partly Cloudy,40,2013-01-12 20:36:00
12:53 PM,15.1,1.0,54,30.22,10.0,NE,5.8,-,N/A,,Clear,40,2013-01-12 20:53:00
1:53 PM,12.9,1.0,59,30.24,10.0,North,4.6,-,N/A,,Overcast,10,2013-01-12 21:53:00
2:53 PM,12.0,-0.0,59,30.27,10.0,Calm,Calm,-,N/A,,Mostly Cloudy,0,2013-01-12 22:53:00
3:53 PM,12.0,-0.0,59,30.27,10.0,North,4.6,-,N/A,,Overcast,350,2013-01-12 23:53:00
4:53 PM,8.1,-0.0,70,30.29,10.0,West,9.2,-,N/A,,Overcast,280,2013-01-13 00:53:00
5:53 PM,3.0,-4.0,73,30.31,10.0,West,8.1,-,N/A,,Scattered Clouds,280,2013-01-13 01:53:00
6:53 PM,-2.0,-8.0,76,30.32,10.0,Variable,3.5,-,N/A,,Clear,0,2013-01-13 02:53:00
7:53 PM,-11.0,-16.1,78,30.35,10.0,SSE,8.1,-,N/A,,Clear,160,2013-01-13 03:53:00
8:53 PM,-11.0,-15.0,83,30.34,10.0,South,13.8,-,N/A,,Clear,170,2013-01-13 04:53:00
9:53 PM,-15.0,-18.9,82,30.35,10.0,South,11.5,-,N/A,,Clear,170,2013-01-13 05:53:00
10:53 PM,-14.1,-18.9,79,30.32,10.0,South,12.7,-,N/A,,Clear,170,2013-01-13 06:53:00